TimeCDT,TemperatureF,Dew PointF,Humidity,Sea Level PressureIn,VisibilityMPH,Wind Direction,Wind SpeedMPH,Gust SpeedMPH,PrecipitationIn,Events,Conditions,WindDirDegrees,DateUTC
12:53 AM,25.0,17.1,72,30.29,10.0,WNW,9.2,-,N/A,,Clear,300,2012-10-06 05:53:00
1:53 AM,24.1,16.0,71,30.29,10.0,West,8.1,-,N/A,,Clear,280,2012-10-06 06:53:00
2:53 AM,27.0,19.0,72,30.29,10.0,WNW,10.4,-,N/A,,Clear,290,2012-10-06 07:53:00
3:53 AM,30.9,21.0,67,30.27,10.0,WNW,10.4,-,N/A,,Overcast,300,2012-10-06 08:53:00
4:53 AM,28.9,21.0,72,30.29,10.0,WNW,9.2,-,N/A,,Partly Cloudy,300,2012-10-06 09:53:00
5:36 AM,28.4,21.2,74,30.26,10.0,WNW,8.1,-,N/A,,Mostly Cloudy,300,2012-10-06 10:36:00
5:53 AM,30.0,21.9,72,30.30,10.0,WNW,10.4,-,N/A,,Overcast,290,2012-10-06 10:53:00
6:53 AM,32.0,23.0,69,30.32,10.0,WNW,9.2,-,N/A,,Overcast,290,2012-10-06 11:53:00
7:43 AM,32.0,23.0,69,30.29,10.0,WNW,8.1,-,N/A,,Overcast,300,2012-10-06 12:43:00
7:53 AM,32.0,23.0,69,30.34,10.0,WNW,6.9,-,N/A,,Overcast,300,2012-10-06 12:53:00
8:53 AM,36.0,25.0,64,30.35,10.0,NW,13.8,-,N/A,,Overcast,320,2012-10-06 13:53:00
9:53 AM,37.0,25.0,62,30.36,10.0,North,16.1,-,N/A,,Overcast,350,2012-10-06 14:53:00
10:53 AM,39.9,25.0,55,30.36,10.0,North,17.3,23.0,N/A,,Mostly Cloudy,350,2012-10-06 15:53:00
11:25 AM,39.2,24.8,56,30.31,10.0,NNW,13.8,23.0,N/A,,Mostly Cloudy,330,2012-10-06 16:25:00
11:53 AM,41.0,25.0,53,30.36,10.0,NNW,13.8,-,N/A,,Overcast,330,2012-10-06 16:53:00
12:53 PM,42.1,24.1,49,30.36,10.0,North,16.1,-,N/A,,Overcast,350,2012-10-06 17:53:00
1:53 PM,44.1,23.0,43,30.34,10.0,NNW,16.1,-,N/A,,Mostly Cloudy,330,2012-10-06 18:53:00
2:53 PM,43.0,21.9,43,30.32,10.0,NNW,16.1,23.0,N/A,,Overcast,340,2012-10-06 19:53:00
3:53 PM,43.0,23.0,45,30.31,10.0,NNW,16.1,21.9,N/A,,Mostly Cloudy,330,2012-10-06 20:53:00
4:53 PM,43.0,21.9,43,30.31,10.0,NW,9.2,-,N/A,,Partly Cloudy,320,2012-10-06 21:53:00
5:53 PM,43.0,21.0,42,30.31,10.0,NNW,10.4,-,N/A,,Partly Cloudy,330,2012-10-06 22:53:00
6:53 PM,37.9,19.9,48,30.31,10.0,NNW,6.9,-,N/A,,Clear,340,2012-10-06 23:53:00
7:53 PM,33.1,19.0,56,30.33,10.0,NW,4.6,-,N/A,,Clear,320,2012-10-07 00:53:00
8:53 PM,28.9,18.0,64,30.34,10.0,North,5.8,-,N/A,,Clear,350,2012-10-07 01:53:00
9:53 PM,24.1,16.0,71,30.34,10.0,NNW,5.8,-,N/A,,Clear,340,2012-10-07 02:53:00
11:53 PM,21.0,15.1,78,30.32,10.0,WNW,5.8,-,N/A,,Clear,290,2012-10-07 04:53:00